Regional Weather Roundup
Issued by NWS

Home | Current Version | Previous Version | Graphics & Text | Print | Product List | Glossary On
Versions: 1 2 3 4 5 6 7 8 9 10 11 12 13 14 15 16 17 18 19 20 21 22 23 24 25 26 27 28 29 30 31 32 33 34 35 36 37 38 39 40 41 42 43 44 45 46 47 48 49 50
000
ASUS43 KMKX 020421
RWRWI

WISCONSIN REGIONAL WEATHER ROUNDUP
NATIONAL WEATHER SERVICE MILWAUKEE/SULLIVAN WI
1100 PM CDT SAT AUG 01 2015

NOTE: "FAIR" INDICATES FEW OR NO CLOUDS BELOW 12,000 FEET WITH NO
SIGNIFICANT WEATHER AND/OR OBSTRUCTIONS TO VISIBILITY.

WIZ001-002-006>008-014>016-023>028-020500-
NORTHWEST WISCONSIN

CITY           SKY/WX    TMP DP  RH WIND       PRES   REMARKS
SUPERIOR ARPT  CLEAR     65  60  82 W5        29.72F
ASHLAND        CLEAR     64  57  78 SW6       29.74F
HAYWARD        MOCLDY    66  57  72 SW5       29.78F
SIREN          CLEAR     71  61  70 CALM      29.77F
CUMBERLAND     CLEAR     64  61  88 CALM      29.79F
RICE LAKE      PTCLDY    67  61  80 CALM      29.81F
CHETEK         PTCLDY    67  64  90 CALM      29.79F
LADYSMITH      PTCLDY    67  60  79 S5        29.83S
EAU CLAIRE     PTCLDY    68  62  81 NE3       29.79F
MENOMONIE      CLEAR     70  64  83 E5        29.79F
NEW RICHMOND   LGT RAIN  69  64  85 CALM      29.78F
OSCEOLA        CLEAR     70  66  89 CALM      29.80S
$$

WIZ003>005-009-010-017-018-020500-
NORTH CENTRAL WISCONSIN

CITY           SKY/WX    TMP DP  RH WIND       PRES   REMARKS
MANITOWISH WTR PTCLDY    57  57  99 CALM      29.80S
ARBOR VITAE    CLEAR     64  56  75 CALM      29.81S
WOODRUFF       CLEAR     64  56  75 CALM      29.81S
RHINELANDER    CLEAR     62  55  77 SW7       29.82F
EAGLE RIVER    CLEAR     60  52  75 SW7       29.80F
LAND O LAKES   CLEAR     58  53  85 CALM      29.81S
PHILLIPS       CLEAR     64  57  79 SW5       29.80F
TOMAHAWK       CLEAR     57  55  93 CALM      29.82F
MEDFORD        CLEAR     63  58  85 S3        29.84S
MERRILL        NOT AVBL
$$

WIZ029-030-035-036-043>047-020500-
CENTRAL WISCONSIN

CITY           SKY/WX    TMP DP  RH WIND       PRES   REMARKS
WAUSAU         CLEAR     68  57  68 SW6       29.82S
MOSINEE        CLEAR     61  57  88 S3        29.85S
MARSHFIELD     CLEAR     65  59  81 SW5       29.84F
STEVENS POINT  CLEAR     62  55  78 CALM      29.84F
WAUPACA        CLEAR     65  59  80 CALM      29.83F
WAUTOMA        CLEAR     65  58  78 CALM      29.85S
WISC RAPIDS    CLEAR     67  58  72 CALM      29.85F
CAMP DOUGLAS   PTCLDY    67  67 100 CALM      29.84S
$$

WIZ011>013-019>022-031-037>040-048>050-020500-
NORTHEAST WISCONSIN

CITY           SKY/WX    TMP DP  RH WIND       PRES   REMARKS
ANTIGO         CLEAR     61  56  83 SW6       29.84S
SHAWANO        CLEAR     68  55  64 CALM      29.82F
OCONTO         PTCLDY    61  56  84 CALM      29.80F
STURGEON BAY   CLEAR     66  54  63 S7        29.82F
GREEN BAY      CLEAR     63  56  78 S5        29.82F
MANITOWOC      CLEAR     66  56  70 MISG      29.84F
APPLETON       PTCLDY    70  52  52 VRB5      29.84F
CLINTONVILLE   CLEAR     64  54  68 SW7       29.81F
OSHKOSH        CLEAR     68  58  70 SW3       29.83F
$$

WIZ032>034-041-042-053>061-020500-
SOUTHWEST WISCONSIN

CITY           SKY/WX    TMP DP  RH WIND       PRES   REMARKS
LA CROSSE      CLEAR     77  67  71 S8        29.83R
SPARTA         CLEAR     66  60  82 CALM      29.85S
VIROQUA        CLEAR     71  65  83 SW7       29.88S
BOSCOBEL       CLEAR     69  66  90 CALM      29.86F
PRAIRIE DU CHI CLEAR     75  67  76 CALM      29.86F
PLATTEVILLE    CLEAR     71  69  95 S7        29.90S
$$

WIZ056-057-062-063-064-067-068-020500-
SOUTH CENTRAL WISCONSIN

CITY           SKY/WX    TMP DP  RH WIND       PRES   REMARKS
REEDSBURG      CLEAR     71  63  76 S5        29.85S
BARABOO/DELLS  CLEAR     71  60  70 SW7       29.86S
LONE ROCK      FAIR      68  63  84 CALM      29.87S
MINERAL POINT  CLEAR     73  68  83 SW6       29.90S
MADISON        PTCLDY    74  63  68 SW3       29.86F
MIDDLETON      PTCLDY    69  62  79 SW6       29.87F
WATERTOWN      CLEAR     65  65 100 CALM      29.85F
MONROE         CLEAR     72  68  88 SW9       29.90S
JANESVILLE     CLEAR     70  68  94 SW6       29.88S
$$

WIZ051-052-058>065-066-070>072-020500-
SOUTHEAST WISCONSIN

CITY           SKY/WX    TMP DP  RH WIND       PRES   REMARKS
MILWAUKEE      CLEAR     71  61  70 S7        29.86F
WAUKESHA       CLEAR     68  57  68 SW3       29.88F
MILWAUKEE/TIMM CLEAR     70  57  64 S5        29.87S
RACINE         CLEAR     69  64  84 S3        29.88F
BURLINGTON     CLEAR     63  60  91 S3        29.88F
KENOSHA        CLEAR     69  65  86 SW8       29.88F
FOND DU LAC    CLEAR     69  60  73 SW6       29.84F
SHEBOYGAN      CLEAR     63  58  83 CALM      29.84F
WEST BEND      CLEAR     64  59  82 CALM      29.85F
JUNEAU         CLEAR     67  62  84 CALM      29.87F
$$

LSZ147-162-020500-
LAKE SUPERIOR

STATION/POSITION TIME  TEMP    WIND        PRES    WAVE
                       AIR SEA DIR/SP/G            HT/PER
                 (UTC) (F)     (DEG/KT/KT) (MB)    (FT/S)
W MID LAKE BUOY  0350   63 56  220/ 10/ 10 1005.4F   1/ 3
DEVILS ISLAND    0400   71     220/ 12/ 14 1005.8F
PORT WING        0300   71     190/  6/  9 1007.1S
SAXON HARBOR     0300   67                 1006.8F
$$

LMZ867-665-643>646-020500-
LAKE MICHIGAN

STATION/POSITION TIME  TEMP    WIND        PRES    WAVE
                       AIR SEA DIR/SP/G            HT/PER
                 (UTC) (F)     (DEG/KT/KT) (MB)    (FT/S)
CHAMBERS ISLAND  0300   70     190/  3/  6 1009.1S
N MID LAKE BUOY  0350   70 69  210/ 12/ 14 1008.0F   2/ 4
NORTHPORT PIER   0300   69     180/  3/  5 1008.8F
SISTER BAY       0344   73     220/  9/ 11   N/A
ALGOMA LAKESHORE 0342          210/  7/  8   N/A
KEWAUNEE LAKESHO 0300   65     170/  4/  4 1009.7F
SHEBOYGAN LAKESH 0400   69     210/  5/  5 1010.4F
PORT WASHINGTON  0300   65     210/  4/  8 1011.9S
ATWATER BUOY     0400   70 64  190/  8/  8 1012.4F
MILWAUKEE LAKESH 0400   72     200/  4/  5   N/A
KENOSHA   LAKESH 0400   76     240/  7/ 11 1011.2F
$$

TC  - TEMPERATURE IN CELSIUS
VSB - VISIBILITY IN STATUTE MILES
WCI - WIND CHILL INDEX
HX  - HEAT INDEX



USA.gov is the U.S. government's official web portal to all federal, state and local government web resources and services.